Location: Unspecified
(0.0000°N, 0.0000°E)
Time: 18:32:47
(UTC+00:00)

Transit 2A Rocket - Visible Passes

Search period start: 30 April 2017 00:00
Search period end: 10 May 2017 00:00
Orbit: 594 x 910 km, 66.7° (Epoch: 28 April)

Date Brightness Start Highest point End Pass type
(mag) Time Alt. Az. Time Alt. Az. Time Alt. Az.
30 Apr 5.2 19:35:47 10° NNW 19:41:11 77° WSW 19:43:09 42° S visible
01 May 5.3 18:53:38 10° N 18:58:52 52° ENE 19:03:15 17° SE visible
01 May 7.9 20:39:44 10° W 20:41:27 11° WSW 20:43:12 10° SW visible
02 May 7.2 19:54:38 10° WNW 19:58:59 24° WSW 20:03:26 11° SSW visible
03 May 6.1 19:11:20 10° NW 19:16:34 47° WSW 19:22:13 10° S visible
04 May 5.2 18:28:46 10° NNW 18:34:13 85° ENE 18:40:07 10° SSE visible
05 May 7.7 05:20:49 10° SE 05:22:59 13° ESE 05:25:06 10° E visible
05 May 7.9 19:31:22 10° W 19:34:26 15° WSW 19:37:36 10° SW visible
06 May 7.1 18:47:12 10° NW 18:51:59 30° WSW 18:57:04 10° S visible
08 May 7.1 04:54:40 10° SSE 04:58:24 22° ESE 05:01:54 10° ENE visible
09 May 7.8 18:23:33 10° WNW 18:27:25 19° WSW 18:31:26 10° SSW visible
